Hourly Data Report for July 14, 2009

All times are specified in Local Standard Time (LST). Add 1 hour to adjust for Daylight Saving Time where and when it is observed.

Metadata including Station Name, Province, Latitude, Longitude, Elevation, Climate ID, WMO ID, TC ID
EUREKA OVERLAP
NUNAVUT
Latitude: 79°59'00.000" N Longitude: 85°56'00.000" W Elevation: 10.40 m
Climate ID: 2401200 WMO ID: TC ID:
Hourly Data Report for July 14, 2009
Temp Definition
°C

Dew Point Temp Definition
°C

Rel Hum Definition
%

Wind Dir Definition
10's deg
Wind Spd Definition
km/h

Visibility Definition
km

Stn Press Definition
kPa

Hmdx Definition

Wind Chill Definition

Weather Definition

TIME
00:00
01:00
02:00 7.8 2.3 68 36 28 64.4 102.12 Mainly Clear
03:00 9.3 3.1 65 36 26 64.4 102.13 Mainly Clear
04:00 10.4 3.6 63 35 22 64.4 102.11 Mainly Clear
05:00 10.3 3.8 64 28 17 64.4 102.10 Clear
06:00 9.5 3.5 66 1 24 64.4 102.08 Clear
07:00 10.2 3.9 65 1 32 64.4 102.07 Mainly Clear
08:00 10.6 4.1 64 36 26 64.4 102.05 Mainly Clear
09:00 10.5 3.8 63 36 24 64.4 102.04 Mainly Clear
10:00 10.3 3.7 64 1 20 64.4 102.02 Mainly Clear
11:00 10.6 3.8 63 36 20 64.4 102.01 Mainly Clear
12:00 11.5 4.2 61 36 15 64.4 101.98 Mainly Clear
13:00 11.7 4.3 60 1 26 64.4 101.95 Mainly Clear
14:00 12.0 4.0 58 2 20 64.4 101.91 Mainly Clear
15:00 11.9 3.8 58 1 11 64.4 101.91 Mainly Clear
16:00 13.1 3.9 54 35 24 64.4 101.88 Mainly Clear
17:00 13.5 3.8 52 35 28 64.4 101.87 Mainly Clear
18:00 13.7 3.9 52 36 24 64.4 101.88 Mainly Clear
19:00 14.4 4.1 50 36 22 64.4 101.87 Mainly Clear
20:00 12.5 3.4 54 36 20 64.4 101.85 Mainly Clear
21:00 13.3 3.6 52 1 20 64.4 101.89 Mainly Clear
22:00 12.7 3.5 53 35 17 64.4 101.88 Mainly Clear
23:00 12.4 3.4 54 36 17 64.4 101.90 Mainly Clear

Notes on Data Quality.

Legend
  • E = Estimated
  • M = Missing
  • NA = Not Available
  • ‡ = Partner data that is not subject to review by the National Climate Archives